Regional Weather Roundup
Issued by NWS

Home | Current Version | Previous Version | Text Only | Print | Product List | Glossary Off
Versions: 1 2 3 4 5 6 7 8 9 10 11 12 13 14 15 16 17 18 19 20 21 22 23 24 25 26 27 28 29 30 31 32 33 34 35 36 37 38 39 40 41 42 43 44 45 46 47 48 49 50

000
ASUS43 KFSD 282202
RWRSD

WEATHER ROUNDUP FOR SOUTH DAKOTA
NATIONAL WEATHER SERVICE SIOUX FALLS SD
500 PM CDT THU MAY 28 2015

NOTE: "FAIR" INDICATES FEW OR NO CLOUDS BELOW 12,000 FEET WITH NO
SIGNIFICANT WEATHER AND/OR OBSTRUCTIONS TO VISIBILITY.


SDZ001>005-009-010-012>017-282300-
NORTHWEST AND NORTH CENTRAL SOUTH DAKOTA

CITY           SKY/WX    TMP DP  RH WIND       PRES   REMARKS
BUFFALO          N/A     68  54  60 NW15      29.85F
FAITH            N/A     60  56  86 NW6       29.91R
MOBRIDGE       MOSUNNY   81  57  43 N7        29.78F
$$

SDZ012>016-024>037-041>051-057-063-072>074-282300-
SOUTHWEST AND SOUTH CENTRAL SOUTH DAKOTA

CITY           SKY/WX    TMP DP  RH WIND       PRES   REMARKS
RAPID CTY ARPT PTSUNNY   68  54  60 N13       29.91S
PIERRE         PTSUNNY   77  61  57 S10       29.81S
CUSTER         CLOUDY    57  51  80 E10       29.99F THUNDER
ELLSWORTH AFB  CLOUDY    66  53  63 NW20G28   29.92S
PHILIP         MOSUNNY   78  57  48 CALM      29.84F
PINE RIDGE     CLOUDY    71  53  52 N6        29.90R
WINNER         TSTM      76  58  53 SW15      29.84F
$$

SDZ004>011-016>023-039-040-282300-
NORTHEAST SOUTH DAKOTA

CITY           SKY/WX    TMP DP  RH WIND       PRES   REMARKS
ABERDEEN       PTSUNNY   86  58  38 SW20G29   29.77F
WATERTOWN      MOSUNNY   81  59  47 S21G30    29.85F
BROOKINGS      PTSUNNY   81  57  44 S16G24    29.88F
SISSETON         N/A     84  58  40 S30G37    29.79F
$$

SDZ017-020-022-023-036>040-048>070-282300-
SOUTHEAST SOUTH DAKOTA

CITY           SKY/WX    TMP DP  RH WIND       PRES   REMARKS
SIOUX FALLS    PTSUNNY   79  58  48 S25G33    29.89F
HURON            N/A    N/A N/A N/A MISG      29.81F
CHAMBERLAIN    LGT RAIN  71  62  74 S13       29.82F
MITCHELL       PTSUNNY   85  56  37 S23G29    29.83F
YANKTON        PTSUNNY   79  59  50 SE21G26   29.88F
$$

ABBREVIATIONS USED IN REMARKS
   TC - TEMPERATURE IN CELSIUS
  WCI - WIND CHILL INDEX
   HX - HEAT INDEX
  VSB - VISIBILITY




USA.gov is the U.S. government's official web portal to all federal, state and local government web resources and services.